[ hide orbit diagram ]
For accurate long-term ephemerides, please instead use our Horizons system.This orbit viewer was implemented using two-body methods, and hence should not be used for determining accurate long-term trajectories (over several years or decades) or planetary encounter circumstances.
Orbital Elements at Epoch 2459000.5 (2020-May-31.0) TDB
Reference: JPL 78 (heliocentric ecliptic J2000)
Element | Value | Uncertainty (1-sigma) | Units |
e | .1606283003818353 | 3.2309e-08 | |
a | 2.751128141856293 | 8.0933e-09 | au |
q | 2.30921910429728 | 8.8026e-08 | au |
i | 8.469483394313439 | 3.6658e-06 | deg |
node | 105.3350810251414 | 2.2291e-05 | deg |
peri | 3.925835646569752 | 2.4939e-05 | deg |
M | 129.9595950747502 | 1.2146e-05 | deg |
tp | 2458398.813171171745 (2018-Oct-07.31317117) | 5.467e-05 | TDB |
period | 1666.727710667179 4.56 | 7.3548e-06 2.014e-08 | d yr |
n | .2159920889872856 | 9.5312e-10 | deg/d |
Q | 3.193037179415306 | 9.3934e-09 | au |
|
| | Orbit Determination Parameters
Additional Information
|
[ show covariance matrix ]
Physical Parameter Table
Parameter |
Symbol |
Value |
Units |
Sigma |
Reference |
Notes |
absolute magnitude |
H |
11.1 |
|
n/a |
MPO473769 |
|
diameter |
diameter |
35.334 |
km |
0.276 |
urn:nasa:pds:neowise_diameters_albedos::2.0[mainbelt] (http://adsabs.harvard.edu/abs/2014ApJ...791..121M) |
|
rotation period |
rot_per |
29.913 |
h |
n/a |
LCDB (Rev. 2020-October); Warner et al., 2009 |
Published Reference List: [Pilcher, F.; Strabla, L.P.; Quadri, U.; Gireli, R. (2014) Minor Planet Bull. 41, 132.] |
geometric albedo |
albedo |
0.062 |
|
0.009 |
urn:nasa:pds:neowise_diameters_albedos::2.0[mainbelt] (http://adsabs.harvard.edu/abs/2014ApJ...791..121M) |
|
SMASSII spectral type |
spec_B |
B |
|
n/a |
EAR-A-5-DDR-TAXONOMY-V4.0 |
based on a high-resolution spectrum by Xu et al. (1995) or Bus and Binzel (2002) |
|
560 Delila (A905 EC) Discovered 1905-Mar-13 by Wolf, M. at Heidelberg |
Reference: DISCOVERY.DB | Last Updated: 2003-08-29 |
|
[ show close-approach data ]
|